Theta_e
291 286 282 286 287 285 284 283 284 284 286 284 284 285 288 291 290 289 289 290 291 291 293 294 294 295 295 295 295 296 296 297 296 295 295 295 295 296 296 298 299 299 299 299
286 282 286 287 286 285 284 283 283 284 286 283 285 285 290 292 292 293 292 291 291 291 292 293 294 294 294 294 294 295 296 296 296 297 296 295 294 295 297 298 299 299 299 298
284 285 287 286 284 284 283 282 283 282 285 285 282 282 286 290 291 293 294 293 293 292 291 291 292 294 293 293 293 295 296 296 296 297 296 295 296 296 296 296 296 297 298 298
284 285 285 283 284 285 281 284 284 283 282 279 282 277 286 289 289 289 291 291 290 291 292 293 294 293 293 293 294 295 296 296 297 296 295 294 293 292 294 294 295 296 297 297
282 281 281 282 282 283 282 284 283 282 280 279 279 277 283 288 288 290 290 291 290 291 292 292 292 293 293 294 294 295 295 295 295 295 295 294 294 294 294 294 294 295 295 296
281 284 283 282 283 283 284 282 282 281 280 275 280 279 281 286 288 287 288 290 292 291 291 291 291 294 293 294 295 295 294 294 295 295 294 294 293 293 292 292 292 293 293 293
279 279 282 284 280 282 282 279 278 276 273 275 278 277 282 288 288 289 289 289 289 290 290 290 290 291 292 294 295 295 294 294 294 294 294 294 293 293 292 292 291 291 290 291
278 277 279 282 280 279 279 279 279 274 276 277 277 275 283 289 290 290 291 291 291 290 290 290 290 291 291 294 294 294 294 294 294 294 293 294 294 292 292 291 291 290 290 290
280 277 280 281 282 281 279 275 280 278 273 273 278 282 288 290 288 288 288 289 288 289 290 290 291 291 292 292 293 293 293 294 294 293 293 293 293 292 291 291 290 290 290 291
284 277 279 280 281 281 278 282 275 276 269 269 279 279 281 285 287 289 289 288 289 290 290 291 291 291 292 292 293 293 293 293 293 293 293 293 292 292 291 290 290 290 290 290
282 282 276 277 275 277 277 276 277 278 278 275 275 278 286 287 289 288 289 290 290 290 290 290 291 291 291 291 292 292 292 292 292 292 292 291 291 291 291 290 290 289 289 289
282 281 274 275 278 279 277 278 280 277 276 276 277 276 288 289 290 290 290 291 291 291 291 291 291 291 290 290 290 290 290 290 291 292 292 291 291 290 289 289 289 289 288 289
282 278 272 274 275 276 272 278 279 280 279 274 273 277 286 287 286 288 289 290 291 291 290 291 291 291 290 290 290 290 290 289 290 291 291 290 290 289 288 288 289 289 288 288
288 281 278 278 280 276 270 274 277 276 273 277 280 281 285 286 286 288 289 290 290 290 291 290 290 291 291 290 290 289 289 289 289 290 289 288 288 289 288 288 288 288 288 287
283 277 275 278 280 278 277 273 276 276 279 276 282 282 286 288 290 291 290 289 290 290 290 290 290 290 290 290 289 289 288 288 289 288 288 288 289 289 288 287 287 287 287 287
281 278 275 275 279 279 275 278 277 279 279 279 281 281 287 288 289 289 291 290 290 290 290 290 290 290 290 290 288 288 287 287 289 288 287 288 288 287 286 286 286 286 286 286
278 278 276 275 280 277 273 276 278 279 281 282 278 284 288 288 289 290 291 292 291 291 291 290 291 290 290 289 288 286 286 288 287 286 287 287 287 286 285 286 285 284 284 284
279 278 280 277 274 269 280 286 284 281 283 284 285 287 289 291 292 292 293 292 292 291 291 291 290 290 289 288 287 287 286 287 286 286 285 285 285 283 283 281 281 279 280 279
285 283 279 276 277 279 281 283 281 278 282 286 285 287 288 289 288 289 293 293 293 291 291 291 290 289 288 287 286 286 285 285 285 284 285 284 283 282 281 281 282 284 282 276
284 285 281 280 275 273 283 287 289 282 278 287 288 287 288 287 282 286 291 292 292 292 290 290 289 288 286 285 285 285 284 284 284 284 285 283 283 282 280 280 284 284 282 280
278 279 276 278 277 279 285 283 285 274 280 287 289 290 288 286 290 291 289 288 288 288 287 288 287 286 285 284 285 284 283 284 286 283 282 282 282 282 281 282 284 283 282 275
277 276 276 276 274 273 287 282 280 279 287 287 288 289 289 291 292 291 289 286 287 287 284 285 284 284 284 284 285 283 284 284 282 282 281 281 281 282 283 284 284 283 282 273
277 278 276 278 276 278 277 277 277 278 276 276 276 280 283 289 289 289 287 286 283 282 284 284 284 282 278 281 282 282 282 282 281 280 279 278 279 281 282 283 282 282 282 277
276 278 274 276 278 276 278 277 275 275 275 275 275 276 280 280 283 285 286 286 285 286 284 282 281 280 279 280 282 284 282 282 282 281 278 277 279 279 283 283 283 283 282 278
275 276 274 275 276 277 279 276 273 274 274 273 273 274 275 276 276 279 284 286 286 286 285 284 283 282 282 281 281 279 282 282 281 280 280 280 280 280 282 283 283 283 284 282
274 273 272 272 271 271 274 274 270 270 270 270 270 271 275 275 274 275 276 280 283 285 286 283 282 281 283 281 282 280 282 282 281 281 280 280 280 280 283 282 282 286 285 286
Wind_Speed
1 3 7 7 9 2 3 5 7 3 3 2 9 16 18 12 9 12 11 10 10 11 11 12 12 11 10 9 9 10 9 8 5 3 2 1 2 0 2 2 1 2 2 4
1 7 2 3 2 0 3 6 7 3 4 2 8 16 19 16 18 17 13 14 13 9 11 11 13 12 11 10 10 9 9 8 6 3 2 2 1 2 3 3 3 1 3 3
6 2 2 1 2 3 4 6 3 1 4 8 7 10 7 5 12 13 14 10 11 12 11 11 13 14 11 10 10 9 9 9 8 7 3 1 2 2 2 1 2 1 2 2
4 2 2 2 3 4 3 5 3 3 3 4 2 8 6 5 7 7 8 8 7 7 5 10 15 13 12 9 9 9 9 9 8 8 5 5 3 3 2 2 2 3 3 4
5 5 4 3 2 2 1 3 2 0 2 4 3 3 9 2 6 9 9 9 9 9 8 6 9 10 9 10 9 9 9 9 8 8 6 5 4 3 2 2 4 3 4 4
2 1 1 3 3 2 4 2 1 1 1 2 7 6 6 4 4 4 4 4 9 8 8 7 4 9 9 9 9 8 9 8 8 8 8 7 7 5 3 3 3 3 2 3
3 4 3 2 5 1 2 2 1 3 1 7 3 2 8 12 4 5 7 5 6 7 7 7 8 6 9 10 9 8 9 8 9 9 8 8 7 5 5 4 2 3 3 3
6 6 8 6 3 6 7 4 6 6 4 2 2 8 9 4 4 4 7 7 8 8 7 7 9 8 8 9 9 9 9 8 9 9 9 7 7 4 4 3 2 3 3 4
5 1 3 5 3 2 6 5 1 4 2 3 6 8 10 4 5 4 3 5 8 7 8 9 8 8 8 10 10 10 9 9 9 9 7 7 6 6 5 4 3 3 3 3
3 2 1 2 2 3 1 3 4 2 3 5 6 6 8 1 5 8 8 9 9 8 8 8 8 9 8 8 8 9 9 11 8 8 7 6 6 6 4 3 4 4 4 3
2 4 1 2 9 9 4 3 1 0 4 6 3 8 7 3 7 8 9 10 10 10 9 9 8 8 8 7 9 9 9 9 8 8 7 7 6 5 4 4 5 4 3 4
7 4 5 9 3 3 2 4 7 5 6 4 2 9 5 7 6 7 7 6 7 9 8 8 8 8 8 8 8 9 8 8 8 7 7 7 6 6 5 5 5 4 4 5
9 4 1 4 4 4 4 7 5 2 2 7 6 7 3 5 4 3 5 7 7 6 7 8 7 8 8 8 8 8 8 8 8 8 8 7 6 6 6 5 3 3 5 5
6 3 10 13 6 7 6 7 8 6 5 5 19 9 5 2 5 6 8 8 8 9 10 9 8 9 9 9 9 9 9 9 9 8 8 7 7 7 6 5 4 5 4 5
2 7 4 7 1 5 8 7 13 20 25 10 19 16 14 13 13 11 9 8 9 10 9 9 9 9 9 8 8 8 8 8 8 8 8 8 7 6 5 5 5 4 4 5
1 5 3 11 7 8 5 10 19 21 13 22 21 26 6 7 6 7 9 9 11 9 11 11 10 10 9 9 9 8 8 8 9 9 8 7 7 6 6 5 5 3 4 5
8 5 4 12 6 4 5 28 15 14 16 17 20 30 6 13 16 19 20 19 12 12 10 10 10 9 9 8 9 10 9 8 9 8 8 7 7 7 6 5 3 3 4 4
10 7 3 7 4 9 13 4 14 24 26 24 26 28 18 19 14 16 19 15 16 11 10 9 9 8 8 8 8 8 9 10 10 9 8 7 7 6 6 5 4 3 2 4
15 10 8 7 12 11 10 8 8 9 16 18 24 23 19 17 7 29 16 16 16 9 11 12 9 8 8 10 9 9 9 9 9 8 9 8 8 7 5 5 4 5 4 4
18 17 14 13 15 23 18 12 15 6 14 10 15 19 18 7 9 23 8 11 16 17 8 8 8 6 9 8 9 11 9 10 11 10 10 9 9 8 8 5 7 6 5 5
13 12 21 19 16 6 7 2 6 7 6 8 11 16 12 10 17 8 4 4 2 4 7 7 8 8 8 9 10 10 9 14 12 8 8 9 9 9 8 7 7 6 6 3
15 12 14 11 13 16 6 4 7 15 12 13 9 8 10 11 13 9 7 4 5 5 4 5 7 7 7 8 10 10 14 8 7 7 7 8 8 7 7 8 7 7 6 3
6 3 5 4 3 11 12 14 11 13 12 17 21 21 22 13 9 10 6 5 5 2 1 1 5 7 5 8 8 9 6 8 7 7 7 6 6 6 7 8 9 7 7 4
2 3 4 9 9 12 14 12 14 16 17 16 16 18 18 19 18 15 9 5 7 4 7 4 3 4 5 5 8 8 8 9 10 9 8 7 8 7 7 6 7 7 6 4
10 13 5 12 4 11 8 12 13 15 16 18 19 16 18 20 19 19 18 12 9 6 3 3 8 6 8 7 8 6 7 8 7 8 8 8 8 10 9 10 9 8 7 6
1 0 2 3 3 4 9 10 13 13 16 16 18 21 17 16 18 18 14 16 17 14 6 3 4 3 8 5 6 6 8 9 8 8 7 8 7 7 8 8 7 15 12 13
Wind_Direction
52 179 209 209 221 25 323 315 303 111 141 262 232 259 265 257 238 215 213 218 221 206 188 183 182 178 177 175 172 165 162 174 153 160 199 212 212 304 294 19 7 284 311 5
89 233 70 76 48 81 245 279 273 82 152 191 282 273 266 247 233 227 214 207 212 202 188 182 177 175 177 180 170 167 167 173 169 162 162 134 145 257 235 245 244 55 37 332
214 125 106 228 162 191 220 229 305 313 284 215 296 274 239 247 233 236 229 213 202 198 193 182 178 177 172 176 172 174 177 171 162 158 128 154 254 270 264 251 313 271 337 301
233 70 162 165 238 177 244 8 16 341 341 263 163 286 289 236 211 212 222 220 204 215 222 182 179 176 171 170 169 177 176 165 160 154 159 187 192 226 232 251 259 309 321 296
217 158 162 177 126 0 149 15 64 339 275 5 213 245 267 221 239 216 204 204 195 195 188 195 170 167 159 161 173 177 164 155 155 154 172 183 202 220 236 273 292 306 297 296
92 113 197 115 106 75 137 173 186 273 257 301 218 180 271 205 253 101 108 180 160 160 164 174 183 152 154 162 163 159 155 167 155 159 182 189 207 215 242 268 289 291 294 300
141 198 140 186 112 102 202 132 312 340 1 232 4 290 260 292 306 161 162 161 143 141 153 170 170 172 158 159 151 154 164 178 168 170 184 192 202 202 229 254 259 290 287 280
171 283 168 176 243 179 184 189 174 214 207 282 77 236 253 180 33 139 125 138 139 158 169 164 171 178 165 151 153 168 181 184 174 175 186 188 187 191 212 231 237 258 263 277
162 194 62 2 354 348 170 198 234 102 47 44 223 263 304 241 148 145 171 186 163 178 165 174 169 169 173 164 180 181 181 186 180 178 172 179 185 189 206 230 236 250 272 288
201 105 3 83 294 262 318 318 107 326 174 248 258 242 233 256 199 204 204 192 186 175 167 175 171 178 183 181 182 183 184 186 181 170 166 178 188 183 197 213 245 252 267 275
143 130 128 68 202 177 161 233 232 25 175 188 252 254 195 151 150 182 208 181 186 171 178 180 189 194 189 180 182 186 184 174 175 167 168 171 177 185 192 215 238 243 258 273
204 147 177 204 80 47 357 224 176 142 237 244 155 263 198 145 150 141 148 152 159 166 177 184 192 191 186 194 195 187 179 173 172 167 168 174 177 180 199 224 232 245 261 272
186 217 133 324 7 8 210 200 222 70 42 216 149 263 50 131 160 228 174 169 168 179 187 179 181 196 195 194 198 194 181 180 170 165 164 170 182 188 206 216 226 252 263 275
149 199 188 227 190 131 184 205 193 159 185 177 230 250 270 208 210 221 197 217 206 198 203 200 213 216 207 197 193 191 187 174 166 160 164 177 188 188 191 197 209 238 255 274
287 228 166 266 135 160 184 167 192 208 223 203 249 236 236 247 274 269 204 213 209 217 217 216 216 223 216 198 194 185 174 163 156 156 171 188 177 168 180 191 219 234 250 271
186 274 68 276 230 199 226 221 210 211 227 239 253 261 244 270 268 276 264 225 223 215 218 222 221 218 208 199 189 174 168 162 156 168 182 174 158 171 186 198 218 225 259 281
162 190 158 257 250 116 310 234 213 215 221 220 235 246 209 239 240 249 258 256 250 240 220 219 211 209 204 193 174 181 169 154 161 170 175 170 163 179 185 191 204 229 257 296
179 193 182 255 82 214 243 194 226 217 230 218 242 253 240 246 254 252 243 257 251 223 218 211 207 203 190 178 179 158 154 161 169 177 173 166 169 178 179 174 193 232 225 273
219 197 231 228 227 267 289 251 214 162 252 224 235 250 249 253 288 270 260 251 255 225 215 216 199 187 165 168 165 153 156 161 171 181 179 175 166 169 173 186 202 221 239 258
204 220 227 234 247 250 253 247 232 114 258 201 220 239 232 194 214 258 178 238 241 241 228 183 172 154 153 164 151 155 166 168 194 188 184 168 163 170 174 174 215 223 234 257
201 210 223 234 245 259 261 179 85 172 242 214 215 240 234 197 221 241 173 246 238 220 183 155 159 168 176 157 152 165 165 197 200 159 157 164 169 173 168 172 208 217 239 266
214 212 219 219 236 243 254 31 237 349 339 339 313 296 268 239 243 243 219 234 229 222 185 163 157 171 174 165 162 172 196 190 143 151 164 171 174 174 168 189 207 214 221 242
235 352 312 220 206 38 44 64 28 16 20 1 350 346 347 336 331 292 264 227 220 183 293 305 192 175 182 170 172 187 202 148 148 152 173 171 163 175 174 189 205 215 221 186
18 57 350 339 24 7 23 29 33 25 5 359 357 347 357 344 344 335 320 312 305 217 182 173 204 261 236 208 194 200 154 158 162 171 168 169 176 177 188 199 210 206 206 204
282 297 311 286 354 331 35 34 14 2 357 353 348 350 351 348 350 347 330 315 301 284 300 295 182 212 238 200 213 176 162 154 173 176 178 182 189 186 197 209 207 210 213 191
75 154 311 333 159 257 279 10 20 359 350 353 345 335 343 353 345 340 342 345 338 322 298 220 248 260 265 226 219 174 175 170 167 180 187 189 186 189 203 208 217 222 219 208